| time (UTC) | temp C | wind direction | speed KPH | gust KPH | rain 1hr cm | rain 24hr cm | rain mn cm | humidity % | barometer mb |
| 20260506193045 | 7 | 360 | 1.6 | 6.4 | 0.03 | 2.11 | 1.73 | 91 | 1005.3 |
| 20260506192540 | 7 | 0 | 1.6 | 9.7 | 0.03 | 2.11 | 1.73 | 91 | 1005.4 |
| 20260506192040 | 7 | 345 | 4.8 | 9.7 | 0.03 | 2.11 | 1.73 | 91 | 1005.3 |
| 20260506191550 | 7 | 25 | 4.8 | 9.7 | 0.00 | 2.08 | 1.70 | 91 | 1005.3 |
| 20260506191040 | 7 | 24 | 1.6 | 12.9 | 0.03 | 2.08 | 1.70 | 91 | 1005.4 |
| 20260506190540 | 7 | 27 | 4.8 | 12.9 | 0.03 | 2.08 | 1.70 | 91 | 1005.3 |
| 20260506190053 | 7 | 5 | 3.2 | 11.3 | 0.05 | 2.08 | 1.70 | 91 | 1005.2 |
| 20260506185540 | 7 | 34 | 3.2 | 9.7 | 0.08 | 2.08 | 1.70 | 91 | 1005.2 |
| 20260506185039 | 7 | 5 | 4.8 | 14.5 | 0.13 | 2.08 | 1.70 | 91 | 1005.3 |
| 20260506184556 | 7 | 23 | 4.8 | 14.5 | 0.15 | 2.08 | 1.70 | 91 | 1005.2 |
| 20260506184039 | 7 | 5 | 6.4 | 14.5 | 0.20 | 2.08 | 1.70 | 91 | 1005.2 |
| 20260506183538 | 7 | 84 | 6.4 | 16.1 | 0.25 | 2.08 | 1.70 | 91 | 1005.2 |
| 20260506183101 | 7 | 5 | 8.0 | 16.1 | 0.30 | 2.08 | 1.70 | 91 | 1005.2 |
| 20260506182541 | 7 | 36 | 6.4 | 14.5 | 0.30 | 2.08 | 1.70 | 91 | 1005.3 |
| 20260506182042 | 7 | 30 | 6.4 | 19.3 | 0.33 | 2.08 | 1.70 | 91 | 1005.4 |
| 20260506181548 | 7 | 20 | 6.4 | 19.3 | 0.36 | 2.08 | 1.70 | 91 | 1005.5 |
| 20260506181040 | 7 | 315 | 8.0 | 19.3 | 0.33 | 2.06 | 1.68 | 91 | 1005.6 |
| 20260506180540 | 7 | 22 | 6.4 | 14.5 | 0.36 | 2.06 | 1.68 | 91 | 1005.8 |
| 20260506180054 | 7 | 343 | 3.2 | 8.0 | 0.38 | 2.03 | 1.65 | 91 | 1006.3 |
| 20260506175540 | 7 | 344 | 1.6 | 9.7 | 0.36 | 2.01 | 1.63 | 91 | 1006.5 |
| 20260506175043 | 7 | 5 | 4.8 | 12.9 | 0.38 | 1.96 | 1.57 | 91 | 1006.1 |
| 20260506174604 | 7 | 323 | 3.2 | 12.9 | 0.38 | 1.91 | 1.52 | 91 | 1005.9 |
| 20260506174040 | 7 | 33 | 0.0 | 8.0 | 0.36 | 1.85 | 1.47 | 91 | 1005.9 |
| 20260506173539 | 7 | 355 | 1.6 | 8.0 | 0.33 | 1.83 | 1.45 | 91 | 1006.1 |
| 20260506173056 | 7 | 328 | 0.0 | 6.4 | 0.30 | 1.78 | 1.40 | 91 | 1006.0 |
| 20260506172539 | 7 | 328 | 1.6 | 6.4 | 0.30 | 1.75 | 1.37 | 91 | 1005.8 |
| 20260506172040 | 7 | 328 | 3.2 | 6.4 | 0.33 | 1.75 | 1.37 | 91 | 1006.0 |
| 20260506171547 | 7 | 329 | 1.6 | 6.4 | 0.33 | 1.73 | 1.32 | 91 | 1006.1 |
| 20260506171040 | 7 | 329 | 1.6 | 6.4 | 0.36 | 1.73 | 1.32 | 91 | 1006.1 |
| 20260506170539 | 7 | 329 | 3.2 | 8.0 | 0.33 | 1.70 | 1.32 | 91 | 1005.9 |
| 20260506170100 | 7 | 329 | 3.2 | 12.9 | 0.30 | 1.65 | 1.27 | 91 | 1005.9 |
| 20260506165540 | 7 | 331 | 3.2 | 14.5 | 0.30 | 1.65 | 1.27 | 91 | 1005.7 |
| 20260506165040 | 7 | 329 | 6.4 | 14.5 | 0.25 | 1.57 | 1.19 | 91 | 1005.9 |
| 20260506164553 | 7 | 309 | 8.0 | 14.5 | 0.23 | 1.52 | 1.14 | 91 | 1006.1 |
| 20260506164038 | 7 | 10 | 4.8 | 12.9 | 0.20 | 1.47 | 1.12 | 91 | 1005.8 |
| 20260506163538 | 7 | 327 | 4.8 | 19.3 | 0.20 | 1.47 | 1.09 | 91 | 1005.8 |
| 20260506163104 | 7 | 293 | 6.4 | 19.3 | 0.20 | 1.47 | 1.09 | 91 | 1005.9 |
| 20260506162539 | 7 | 301 | 8.0 | 16.1 | 0.20 | 1.45 | 1.07 | 91 | 1006.1 |
| 20260506162040 | 7 | 305 | 8.0 | 16.1 | 0.18 | 1.42 | 1.04 | 91 | 1006.1 |
| 20260506161549 | 8 | 297 | 4.8 | 12.9 | 0.18 | 1.40 | 1.02 | 91 | 1006.2 |
| 20260506161044 | 8 | 317 | 4.8 | 12.9 | 0.15 | 1.37 | 0.99 | 91 | 1006.0 |
| 20260506160539 | 8 | 314 | 3.2 | 12.9 | 0.15 | 1.37 | 0.99 | 91 | 1005.9 |
| 20260506160051 | 8 | 309 | 4.8 | 12.9 | 0.15 | 1.32 | 0.97 | 91 | 1005.9 |
| 20260506155540 | 8 | 319 | 3.2 | 12.9 | 0.13 | 1.32 | 0.94 | 91 | 1006.0 |
| 20260506155040 | 8 | 336 | 1.6 | 12.9 | 0.15 | 1.32 | 0.94 | 91 | 1006.1 |
| 20260506154553 | 8 | 302 | 4.8 | 12.9 | 0.13 | 1.30 | 0.91 | 91 | 1006.2 |
| 20260506154043 | 8 | 336 | 3.2 | 8.0 | 0.13 | 1.30 | 0.91 | 91 | 1006.1 |
| 20260506153541 | 8 | 306 | 3.2 | 8.0 | 0.13 | 1.27 | 0.89 | 91 | 1006.1 |
| 20260506153043 | 8 | 306 | 3.2 | 8.0 | 0.13 | 1.27 | 0.89 | 91 | 1006.1 |
| 20260506152538 | 8 | 298 | 3.2 | 8.0 | 0.10 | 1.24 | 0.86 | 91 | 1006.2 |
| 20260506152040 | 8 | 298 | 3.2 | 8.0 | 0.13 | 1.24 | 0.86 | 91 | 1006.4 |
| 20260506151551 | 8 | 333 | 4.8 | 8.0 | 0.10 | 1.22 | 0.84 | 91 | 1006.4 |
| 20260506151038 | 8 | 337 | 1.6 | 8.0 | 0.10 | 1.22 | 0.84 | 91 | 1006.5 |
| 20260506150537 | 8 | 342 | 3.2 | 8.0 | 0.10 | 1.22 | 0.84 | 91 | 1006.5 |
| 20260506150050 | 8 | 325 | 3.2 | 8.0 | 0.10 | 1.19 | 0.81 | 91 | 1006.6 |
| 20260506145535 | 8 | 306 | 3.2 | 8.0 | 0.13 | 1.19 | 0.81 | 91 | 1006.8 |
| 20260506145037 | 9 | 10 | 3.2 | 8.0 | 0.10 | 1.17 | 0.79 | 91 | 1006.8 |
| 20260506144548 | 9 | 341 | 1.6 | 6.4 | 0.13 | 1.17 | 0.79 | 91 | 1006.8 |
| 20260506144036 | 9 | 340 | 1.6 | 6.4 | 0.13 | 1.17 | 0.79 | 91 | 1006.7 |
| 20260506143537 | 9 | 340 | 3.2 | 6.4 | 0.10 | 1.14 | 0.76 | 91 | 1006.6 |
| 20260506143046 | 9 | 5 | 1.6 | 8.0 | 0.13 | 1.14 | 0.76 | 91 | 1006.7 |
| 20260506142538 | 8 | 5 | 3.2 | 8.0 | 0.13 | 1.14 | 0.76 | 91 | 1006.7 |
| 20260506142037 | 9 | 352 | 3.2 | 8.0 | 0.13 | 1.12 | 0.74 | 91 | 1006.8 |
| 20260506141550 | 9 | 27 | 0.0 | 6.4 | 0.15 | 1.12 | 0.74 | 91 | 1006.6 |
| 20260506141039 | 9 | 28 | 3.2 | 8.0 | 0.15 | 1.12 | 0.74 | 91 | 1006.6 |
| 20260506140539 | 9 | 0 | 1.6 | 8.0 | 0.18 | 1.12 | 0.74 | 91 | 1006.7 |
| 20260506140042 | 9 | 0 | 1.6 | 8.0 | 0.18 | 1.09 | 0.71 | 91 | 1006.8 |
| 20260506135538 | 9 | 17 | 0.0 | 6.4 | 0.18 | 1.07 | 0.69 | 91 | 1006.9 |
| 20260506135039 | 9 | 0 | 1.6 | 8.0 | 0.18 | 1.07 | 0.69 | 91 | 1007.0 |
| 20260506134540 | 9 | 0 | 1.6 | 8.0 | 0.18 | 1.04 | 0.66 | 91 | 1007.0 |
| 20260506134038 | 9 | 24 | 3.2 | 8.0 | 0.18 | 1.04 | 0.66 | 91 | 1006.9 |
| 20260506133538 | 9 | 26 | 0.0 | 6.4 | 0.18 | 1.02 | 0.64 | 91 | 1006.8 |
| 20260506133050 | 9 | 0 | 1.6 | 6.4 | 0.18 | 1.02 | 0.64 | 91 | 1006.9 |
| 20260506132541 | 9 | 53 | 1.6 | 4.8 | 0.15 | 0.99 | 0.61 | 91 | 1007.0 |
| 20260506132038 | 9 | 313 | 1.6 | 3.2 | 0.18 | 0.99 | 0.61 | 91 | 1007.1 |
| 20260506131543 | 9 | 0 | 0.0 | 6.4 | 0.15 | 0.97 | 0.58 | 91 | 1007.0 |
| 20260506131039 | 9 | 0 | 0.0 | 6.4 | 0.15 | 0.97 | 0.58 | 91 | 1007.1 |
| 20260506130538 | 9 | 313 | 3.2 | 6.4 | 0.13 | 0.94 | 0.56 | 91 | 1007.3 |
| 20260506130043 | 9 | 355 | 0.0 | 0.0 | 0.10 | 0.91 | 0.53 | 91 | 1007.4 |
| 20260506125536 | 9 | 0 | 0.0 | 1.6 | 0.08 | 0.89 | 0.51 | 91 | 1007.3 |
| 20260506125038 | 9 | 0 | 0.0 | 1.6 | 0.08 | 0.86 | 0.48 | 91 | 1007.4 |
| 20260506124545 | 9 | 0 | 0.0 | 3.2 | 0.08 | 0.86 | 0.48 | 91 | 1007.4 |
| 20260506124038 | 9 | 0 | 0.0 | 4.8 | 0.08 | 0.86 | 0.48 | 91 | 1007.4 |
| 20260506123538 | 9 | 0 | 0.0 | 4.8 | 0.05 | 0.84 | 0.46 | 91 | 1007.5 |
| 20260506123040 | 9 | 0 | 0.0 | 4.8 | 0.05 | 0.84 | 0.46 | 91 | 1007.6 |
| 20260506122538 | 9 | 0 | 0.0 | 8.0 | 0.05 | 0.84 | 0.46 | 91 | 1007.5 |
| 20260506122038 | 9 | 355 | 1.6 | 14.5 | 0.03 | 0.81 | 0.43 | 91 | 1007.3 |
| 20260506121557 | 9 | 355 | 3.2 | 14.5 | 0.03 | 0.81 | 0.43 | 91 | 1007.5 |
| 20260506121038 | 9 | 314 | 6.4 | 14.5 | 0.03 | 0.81 | 0.43 | 91 | 1007.8 |
| 20260506120538 | 10 | 313 | 0.0 | 8.0 | 0.03 | 0.81 | 0.43 | 91 | 1007.7 |
| 20260506120049 | 10 | 309 | 3.2 | 11.3 | 0.03 | 0.81 | 0.43 | 91 | 1007.8 |
| 20260506115542 | 10 | 0 | 3.2 | 11.3 | 0.03 | 0.81 | 0.43 | 91 | 1007.7 |
| 20260506115039 | 10 | 48 | 1.6 | 8.0 | 0.00 | 0.79 | 0.41 | 91 | 1007.2 |
| 20260506114552 | 10 | 0 | 1.6 | 8.0 | 0.00 | 0.79 | 0.41 | 91 | 1007.4 |
| 20260506114040 | 10 | 351 | 0.0 | 6.4 | 0.00 | 0.79 | 0.41 | 91 | 1007.3 |
| 20260506113539 | 10 | 0 | 0.0 | 6.4 | 0.00 | 0.79 | 0.41 | 91 | 1007.5 |
| 20260506113050 | 10 | 0 | 3.2 | 6.4 | 0.00 | 0.79 | 0.41 | 91 | 1007.3 |
| 20260506112541 | 10 | 0 | 0.0 | 6.4 | 0.00 | 0.79 | 0.41 | 91 | 1007.4 |
| 20260506112039 | 10 | 12 | 0.0 | 4.8 | 0.03 | 0.79 | 0.41 | 91 | 1007.3 |
| 20260506111545 | 10 | 0 | 0.0 | 4.8 | 0.03 | 0.79 | 0.41 | 91 | 1007.4 |
| 20260506111040 | 10 | 0 | 0.0 | 11.3 | 0.03 | 0.79 | 0.41 | 91 | 1007.3 |
| 20260506110540 | 10 | 0 | 3.2 | 11.3 | 0.03 | 0.79 | 0.41 | 91 | 1007.3 |
| 20260506110047 | 10 | 0 | 0.0 | 8.0 | 0.03 | 0.79 | 0.41 | 91 | 1007.3 |
| 20260506105540 | 10 | 0 | 1.6 | 8.0 | 0.03 | 0.79 | 0.41 | 91 | 1007.2 |
| 20260506105039 | 10 | 38 | 0.0 | 3.2 | 0.03 | 0.79 | 0.41 | 91 | 1007.2 |
| 20260506104544 | 10 | 0 | 0.0 | 6.4 | 0.03 | 0.79 | 0.41 | 91 | 1007.4 |
| 20260506104039 | 10 | 0 | 0.0 | 8.0 | 0.03 | 0.79 | 0.41 | 91 | 1007.3 |
| 20260506103540 | 10 | 0 | 1.6 | 8.0 | 0.03 | 0.79 | 0.41 | 91 | 1007.2 |
| 20260506103049 | 10 | 23 | 1.6 | 8.0 | 0.03 | 0.79 | 0.41 | 91 | 1007.4 |
| 20260506102539 | 10 | 24 | 3.2 | 8.0 | 0.03 | 0.79 | 0.41 | 91 | 1007.1 |
| 20260506102041 | 10 | 355 | 1.6 | 8.0 | 0.00 | 0.76 | 0.38 | 91 | 1007.5 |
| 20260506101605 | 10 | 0 | 1.6 | 6.4 | 0.00 | 0.76 | 0.38 | 91 | 1007.6 |
| 20260506101039 | 10 | 0 | 1.6 | 6.4 | 0.00 | 0.76 | 0.38 | 91 | 1007.5 |
| 20260506100539 | 10 | 0 | 0.0 | 6.4 | 0.00 | 0.76 | 0.38 | 91 | 1007.4 |
| 20260506100047 | 10 | 0 | 0.0 | 8.0 | 0.00 | 0.76 | 0.38 | 91 | 1007.4 |
| 20260506095539 | 10 | 0 | 1.6 | 11.3 | 0.00 | 0.76 | 0.38 | 91 | 1007.3 |
| 20260506095040 | 10 | 0 | 1.6 | 11.3 | 0.00 | 0.76 | 0.38 | 91 | 1007.8 |
| 20260506094543 | 10 | 63 | 1.6 | 14.5 | 0.00 | 0.76 | 0.38 | 91 | 1007.5 |
| 20260506094039 | 10 | 0 | 1.6 | 14.5 | 0.00 | 0.76 | 0.38 | 91 | 1007.5 |
| 20260506093542 | 10 | 33 | 3.2 | 9.7 | 0.00 | 0.76 | 0.38 | 91 | 1007.4 |
| 20260506093055 | 11 | 59 | 0.0 | 12.9 | 0.00 | 0.76 | 0.38 | 91 | 1007.9 |
| 20260506092540 | 11 | 5 | 1.6 | 12.9 | 0.00 | 0.76 | 0.38 | 91 | 1007.9 |
| 20260506092039 | 11 | 0 | 0.0 | 8.0 | 0.00 | 0.76 | 0.38 | 91 | 1007.7 |
| 20260506091549 | 11 | 0 | 1.6 | 12.9 | 0.00 | 0.76 | 0.38 | 91 | 1007.8 |
| 20260506091039 | 11 | 0 | 0.0 | 12.9 | 0.00 | 0.76 | 0.38 | 91 | 1007.5 |
| 20260506090540 | 11 | 38 | 0.0 | 4.8 | 0.00 | 0.76 | 0.38 | 91 | 1007.5 |
| 20260506090100 | 11 | 0 | 0.0 | 3.2 | 0.00 | 0.76 | 0.38 | 91 | 1007.6 |
| 20260506085539 | 11 | 0 | 0.0 | 3.2 | 0.00 | 0.76 | 0.38 | 91 | 1007.7 |
| 20260506085040 | 11 | 0 | 1.6 | 3.2 | 0.00 | 0.76 | 0.38 | 91 | 1008.0 |
| 20260506084551 | 11 | 0 | 0.0 | 0.0 | 0.00 | 0.76 | 0.38 | 91 | 1007.6 |
| 20260506084039 | 11 | 0 | 0.0 | 3.2 | 0.00 | 0.76 | 0.38 | 91 | 1007.7 |
| 20260506083540 | 11 | 0 | 0.0 | 4.8 | 0.00 | 0.76 | 0.38 | 91 | 1007.8 |
| 20260506083045 | 11 | 0 | 0.0 | 4.8 | 0.00 | 0.76 | 0.38 | 91 | 1007.9 |
| 20260506082540 | 11 | 0 | 0.0 | 3.2 | 0.00 | 0.76 | 0.38 | 91 | 1008.0 |
| 20260506082040 | 11 | 0 | 0.0 | 9.7 | 0.00 | 0.76 | 0.38 | 91 | 1008.2 |
| 20260506081544 | 11 | 0 | 0.0 | 9.7 | 0.00 | 0.76 | 0.38 | 91 | 1008.4 |
| 20260506081043 | 11 | 271 | 0.0 | 6.4 | 0.00 | 0.76 | 0.38 | 91 | 1008.2 |
| 20260506080540 | 11 | 0 | 0.0 | 0.0 | 0.00 | 0.76 | 0.38 | 90 | 1007.4 |
| 20260506073047 | 11 | 0 | 0.0 | 0.0 | 0.08 | 0.76 | 0.38 | 91 | 1007.3 |
| 20260506072539 | 11 | 0 | 0.0 | 0.0 | 0.08 | 0.76 | 0.38 | 90 | 1007.5 |
| 20260506072041 | 11 | 0 | 0.0 | 0.0 | 0.08 | 0.76 | 0.38 | 90 | 1007.4 |
| 20260506071544 | 11 | 0 | 0.0 | 3.2 | 0.08 | 0.76 | 0.38 | 90 | 1007.3 |
| 20260506071044 | 11 | 0 | 0.0 | 3.2 | 0.08 | 0.76 | 0.38 | 90 | 1007.5 |
| 20260506070539 | 11 | 0 | 0.0 | 3.2 | 0.08 | 0.76 | 0.38 | 90 | 1007.5 |
| 20260506062039 | 11 | 0 | 0.0 | 0.0 | 0.05 | 0.69 | 0.30 | 90 | 1007.7 |
| 20260506061550 | 11 | 0 | 0.0 | 0.0 | 0.05 | 0.69 | 0.30 | 90 | 1007.7 |
| 20260506061039 | 11 | 0 | 0.0 | 3.2 | 0.05 | 0.69 | 0.30 | 90 | 1007.7 |
| 20260506060539 | 11 | 0 | 0.0 | 6.4 | 0.08 | 0.69 | 0.30 | 90 | 1007.6 |
| 20260506051040 | 11 | 0 | 0.0 | 0.0 | 0.13 | 0.64 | 0.25 | 90 | 1008.1 |
| 20260506050539 | 11 | 0 | 0.0 | 0.0 | 0.13 | 0.61 | 0.23 | 90 | 1007.8 |
| 20260506050112 | 11 | 0 | 0.0 | 0.0 | 0.23 | 0.61 | 0.23 | 90 | 1008.0 |
| 20260506045039 | 11 | 0 | 0.0 | 0.0 | 0.23 | 0.58 | 0.20 | 90 | 1007.9 |
| 20260506044548 | 11 | 0 | 0.0 | 6.4 | 0.20 | 0.53 | 0.15 | 90 | 1008.1 |
| 20260506044039 | 11 | 0 | 0.0 | 8.0 | 0.23 | 0.51 | 0.13 | 90 | 1007.9 |
| 20260506043539 | 11 | 352 | 4.8 | 8.0 | 0.23 | 0.51 | 0.13 | 90 | 1007.5 |
| 20260506043042 | 11 | 346 | 3.2 | 6.4 | 0.25 | 0.51 | 0.13 | 89 | 1007.8 |
| 20260506042540 | 11 | 346 | 3.2 | 9.7 | 0.28 | 0.51 | 0.13 | 89 | 1007.8 |
| 20260506042042 | 12 | 346 | 3.2 | 19.3 | 0.30 | 0.51 | 0.13 | 89 | 1007.9 |
| 20260506041557 | 12 | 336 | 4.8 | 20.9 | 0.33 | 0.51 | 0.13 | 89 | 1008.1 |
| 20260506041041 | 12 | 328 | 9.7 | 20.9 | 0.33 | 0.51 | 0.13 | 89 | 1008.0 |
| 20260506040539 | 12 | 338 | 6.4 | 17.7 | 0.28 | 0.46 | 0.08 | 89 | 1008.2 |
| 20260506040049 | 12 | 300 | 8.0 | 17.7 | 0.20 | 0.38 | 0.00 | 89 | 1008.0 |
| 20260506035541 | 12 | 317 | 8.0 | 24.1 | 0.18 | 0.36 | 0.36 | 88 | 1007.8 |
| 20260506035038 | 12 | 298 | 8.0 | 24.1 | 0.18 | 0.36 | 0.36 | 88 | 1007.6 |
| 20260506034552 | 12 | 304 | 12.9 | 24.1 | 0.15 | 0.33 | 0.33 | 88 | 1007.6 |
| 20260506034039 | 13 | 282 | 11.3 | 24.1 | 0.10 | 0.28 | 0.28 | 87 | 1007.3 |
| 20260506033539 | 13 | 295 | 8.0 | 20.9 | 0.08 | 0.25 | 0.25 | 87 | 1007.1 |
| 20260506033047 | 13 | 232 | 6.4 | 14.5 | 0.08 | 0.25 | 0.25 | 86 | 1007.0 |
| 20260506032543 | 14 | 209 | 1.6 | 8.0 | 0.05 | 0.23 | 0.23 | 84 | 1006.5 |
| 20260506032039 | 13 | 206 | 3.2 | 8.0 | 0.03 | 0.20 | 0.20 | 84 | 1006.5 |
| 20260506031549 | 13 | 141 | 3.2 | 8.0 | 0.00 | 0.18 | 0.18 | 84 | 1006.4 |
| 20260506031040 | 13 | 138 | 3.2 | 8.0 | 0.00 | 0.18 | 0.18 | 84 | 1006.2 |
| 20260506030545 | 13 | 138 | 3.2 | 9.7 | 0.00 | 0.18 | 0.18 | 84 | 1006.3 |
| 20260506030048 | 14 | 138 | 4.8 | 9.7 | 0.00 | 0.18 | 0.18 | 83 | 1006.3 |
| 20260506025539 | 14 | 180 | 1.6 | 9.7 | 0.00 | 0.18 | 0.18 | 83 | 1006.4 |
| 20260506025039 | 14 | 174 | 4.8 | 9.7 | 0.00 | 0.18 | 0.18 | 81 | 1006.4 |
| 20260506024549 | 15 | 146 | 3.2 | 8.0 | 0.00 | 0.18 | 0.18 | 81 | 1006.2 |
| 20260506024040 | 15 | 150 | 3.2 | 6.4 | 0.00 | 0.18 | 0.18 | 78 | 1006.2 |
| 20260506023540 | 15 | 238 | 1.6 | 6.4 | 0.00 | 0.18 | 0.18 | 77 | 1006.2 |
| 20260506023058 | 15 | 239 | 1.6 | 6.4 | 0.00 | 0.18 | 0.18 | 75 | 1006.3 |
| 20260506022539 | 15 | 240 | 1.6 | 6.4 | 0.00 | 0.18 | 0.18 | 75 | 1006.1 |
| 20260506022041 | 15 | 246 | 1.6 | 8.0 | 0.00 | 0.18 | 0.18 | 75 | 1006.0 |
| 20260506021545 | 15 | 246 | 1.6 | 12.9 | 0.00 | 0.18 | 0.18 | 75 | 1006.4 |
| 20260506021038 | 15 | 237 | 3.2 | 12.9 | 0.00 | 0.18 | 0.18 | 76 | 1006.4 |
| 20260506020539 | 15 | 250 | 3.2 | 9.7 | 0.00 | 0.18 | 0.18 | 76 | 1006.4 |
| 20260506020054 | 15 | 267 | 3.2 | 9.7 | 0.00 | 0.18 | 0.18 | 76 | 1006.4 |
| 20260506015540 | 15 | 0 | 1.6 | 6.4 | 0.00 | 0.18 | 0.18 | 76 | 1006.2 |
| 20260506015040 | 15 | 200 | 0.0 | 4.8 | 0.00 | 0.18 | 0.18 | 77 | 1006.0 |
| 20260506014549 | 15 | 0 | 1.6 | 4.8 | 0.00 | 0.18 | 0.18 | 77 | 1005.7 |
| 20260506014038 | 15 | 200 | 1.6 | 6.4 | 0.00 | 0.18 | 0.18 | 77 | 1005.6 |
| 20260506013538 | 15 | 180 | 3.2 | 6.4 | 0.00 | 0.18 | 0.18 | 77 | 1005.5 |
| 20260506013054 | 15 | 196 | 1.6 | 8.0 | 0.00 | 0.18 | 0.18 | 77 | 1005.4 |
| 20260506012541 | 15 | 215 | 3.2 | 11.3 | 0.00 | 0.18 | 0.18 | 76 | 1005.6 |
| 20260506012041 | 15 | 169 | 3.2 | 11.3 | 0.00 | 0.18 | 0.18 | 76 | 1005.6 |
| 20260506011548 | 15 | 134 | 3.2 | 11.3 | 0.00 | 0.18 | 0.18 | 75 | 1005.4 |
| 20260506011039 | 16 | 172 | 3.2 | 11.3 | 0.00 | 0.18 | 0.18 | 75 | 1005.4 |
| 20260506010540 | 16 | 142 | 3.2 | 9.7 | 0.00 | 0.18 | 0.18 | 74 | 1005.4 |
| 20260506010051 | 16 | 156 | 4.8 | 9.7 | 0.00 | 0.18 | 0.18 | 73 | 1005.5 |
| 20260506005540 | 16 | 161 | 4.8 | 9.7 | 0.00 | 0.18 | 0.18 | 72 | 1005.5 |
| 20260506005039 | 16 | 196 | 3.2 | 9.7 | 0.00 | 0.18 | 0.18 | 71 | 1005.4 |
| 20260506004557 | 16 | 155 | 3.2 | 11.3 | 0.00 | 0.18 | 0.18 | 70 | 1005.2 |
| 20260506004039 | 17 | 203 | 3.2 | 16.1 | 0.00 | 0.18 | 0.18 | 69 | 1005.4 |
| 20260506003538 | 17 | 194 | 3.2 | 16.1 | 0.00 | 0.18 | 0.18 | 69 | 1005.3 |
| 20260506003051 | 17 | 274 | 3.2 | 14.5 | 0.00 | 0.18 | 0.18 | 68 | 1005.3 |
| 20260506002539 | 17 | 234 | 6.4 | 20.9 | 0.00 | 0.18 | 0.18 | 67 | 1005.2 |
| 20260506002040 | 17 | 215 | 8.0 | 20.9 | 0.00 | 0.18 | 0.18 | 68 | 1005.2 |
| 20260506001554 | 17 | 236 | 8.0 | 17.7 | 0.00 | 0.18 | 0.18 | 68 | 1005.2 |
| 20260506001038 | 17 | 240 | 6.4 | 16.1 | 0.00 | 0.18 | 0.18 | 69 | 1005.1 |
| 20260506000541 | 17 | 162 | 4.8 | 16.1 | 0.00 | 0.18 | 0.18 | 70 | 1005.1 |
| 20260506000057 | 17 | 221 | 3.2 | 19.3 | 0.00 | 0.18 | 0.18 | 69 | 1005.2 |
| 20260505235539 | 17 | 168 | 4.8 | 19.3 | 0.00 | 0.18 | 0.18 | 68 | 1005.2 |
| 20260505235040 | 17 | 197 | 4.8 | 14.5 | 0.00 | 0.18 | 0.18 | 67 | 1005.2 |
| 20260505234547 | 17 | 209 | 4.8 | 14.5 | 0.00 | 0.18 | 0.18 | 67 | 1005.1 |
| 20260505234039 | 17 | 229 | 4.8 | 12.9 | 0.00 | 0.18 | 0.18 | 67 | 1005.1 |
| 20260505233541 | 17 | 194 | 4.8 | 20.9 | 0.00 | 0.18 | 0.18 | 67 | 1005.0 |
| 20260505233056 | 17 | 266 | 8.0 | 20.9 | 0.00 | 0.18 | 0.18 | 68 | 1004.8 |
| 20260505232539 | 17 | 272 | 3.2 | 14.5 | 0.00 | 0.18 | 0.18 | 67 | 1004.7 |
| 20260505232039 | 17 | 238 | 4.8 | 14.5 | 0.00 | 0.18 | 0.18 | 67 | 1004.5 |
| 20260505231551 | 17 | 212 | 3.2 | 17.7 | 0.00 | 0.18 | 0.18 | 67 | 1004.5 |
| 20260505231040 | 17 | 248 | 3.2 | 17.7 | 0.00 | 0.18 | 0.18 | 66 | 1004.5 |
| 20260505230540 | 17 | 213 | 6.4 | 20.9 | 0.00 | 0.18 | 0.18 | 66 | 1004.4 |
| 20260505230112 | 17 | 269 | 8.0 | 20.9 | 0.00 | 0.18 | 0.18 | 68 | 1004.4 |
| 20260505225538 | 17 | 240 | 6.4 | 25.7 | 0.00 | 0.18 | 0.18 | 67 | 1004.5 |
| 20260505225039 | 17 | 284 | 9.7 | 25.7 | 0.00 | 0.18 | 0.18 | 68 | 1004.5 |
| 20260505224549 | 17 | 280 | 9.7 | 22.5 | 0.00 | 0.18 | 0.18 | 68 | 1004.6 |
| 20260505224039 | 17 | 262 | 8.0 | 27.4 | 0.00 | 0.18 | 0.18 | 69 | 1004.5 |
| 20260505223539 | 17 | 289 | 8.0 | 40.2 | 0.00 | 0.18 | 0.18 | 69 | 1004.5 |
| 20260505223052 | 17 | 240 | 12.9 | 40.2 | 0.00 | 0.18 | 0.18 | 69 | 1004.3 |
| 20260505222540 | 17 | 237 | 3.2 | 11.3 | 0.00 | 0.18 | 0.18 | 72 | 1004.1 |
| 20260505222043 | 17 | 213 | 1.6 | 14.5 | 0.00 | 0.18 | 0.18 | 75 | 1004.3 |
| 20260505221555 | 17 | 258 | 3.2 | 14.5 | 0.00 | 0.18 | 0.18 | 74 | 1004.7 |
| 20260505221038 | 17 | 232 | 3.2 | 12.9 | 0.00 | 0.18 | 0.18 | 74 | 1004.6 |
| 20260505220539 | 17 | 0 | 3.2 | 11.3 | 0.00 | 0.18 | 0.18 | 75 | 1004.6 |
| 20260505220055 | 17 | 261 | 4.8 | 16.1 | 0.00 | 0.18 | 0.18 | 74 | 1004.7 |
| 20260505215539 | 17 | 314 | 6.4 | 16.1 | 0.00 | 0.18 | 0.18 | 73 | 1004.4 |
| 20260505215039 | 18 | 323 | 6.4 | 16.1 | 0.00 | 0.18 | 0.18 | 70 | 1004.5 |
| 20260505214545 | 17 | 250 | 4.8 | 12.9 | 0.00 | 0.18 | 0.18 | 70 | 1004.1 |
| 20260505214038 | 17 | 239 | 3.2 | 9.7 | 0.00 | 0.18 | 0.18 | 71 | 1003.8 |
| 20260505213539 | 17 | 265 | 1.6 | 9.7 | 0.00 | 0.18 | 0.18 | 72 | 1003.7 |
| 20260505213044 | 17 | 276 | 3.2 | 12.9 | 0.00 | 0.18 | 0.18 | 72 | 1003.9 |
| 20260505212540 | 17 | 278 | 4.8 | 19.3 | 0.00 | 0.18 | 0.18 | 71 | 1003.8 |
| 20260505212039 | 17 | 239 | 4.8 | 19.3 | 0.00 | 0.18 | 0.18 | 74 | 1003.8 |
| 20260505211559 | 17 | 254 | 6.4 | 17.7 | 0.00 | 0.18 | 0.18 | 73 | 1003.8 |
| 20260505211040 | 17 | 158 | 8.0 | 25.7 | 0.00 | 0.18 | 0.18 | 73 | 1004.0 |
| 20260505210538 | 17 | 257 | 9.7 | 25.7 | 0.00 | 0.18 | 0.18 | 75 | 1003.8 |
| 20260505210056 | 17 | 267 | 9.7 | 24.1 | 0.05 | 0.18 | 0.18 | 76 | 1004.1 |
| 20260505205540 | 16 | 259 | 8.0 | 24.1 | 0.10 | 0.18 | 0.18 | 78 | 1004.2 |
| 20260505205039 | 16 | 227 | 12.9 | 24.1 | 0.15 | 0.18 | 0.18 | 79 | 1004.0 |
| 20260505204549 | 16 | 269 | 8.0 | 25.7 | 0.15 | 0.18 | 0.18 | 81 | 1003.9 |
| 20260505204039 | 15 | 225 | 8.0 | 25.7 | 0.15 | 0.18 | 0.18 | 82 | 1003.6 |
| 20260505203539 | 15 | 237 | 8.0 | 24.1 | 0.15 | 0.18 | 0.18 | 82 | 1003.5 |
| 20260505203048 | 15 | 224 | 8.0 | 25.7 | 0.15 | 0.18 | 0.18 | 83 | 1003.4 |
| 20260505202540 | 15 | 214 | 8.0 | 25.7 | 0.18 | 0.18 | 0.18 | 84 | 1003.5 |
| 20260505202039 | 15 | 246 | 11.3 | 32.2 | 0.18 | 0.18 | 0.18 | 83 | 1003.5 |
| 20260505201551 | 15 | 274 | 12.9 | 32.2 | 0.18 | 0.18 | 0.18 | 83 | 1003.4 |
| 20260505201042 | 15 | 263 | 9.7 | 37.0 | 0.18 | 0.18 | 0.18 | 83 | 1003.2 |
| 20260505200539 | 16 | 239 | 14.5 | 45.1 | 0.18 | 0.18 | 0.18 | 80 | 1003.3 |
| 20260505200107 | 17 | 256 | 19.3 | 48.3 | 0.13 | 0.13 | 0.13 | 77 | 1003.3 |
| 20260505195544 | 18 | 231 | 29.0 | 48.3 | 0.08 | 0.08 | 0.08 | 70 | 1003.3 |
| 20260505195042 | 20 | 234 | 17.7 | 43.5 | 0.03 | 0.03 | 0.03 | 57 | 1002.4 |
| 20260505194549 | 20 | 258 | 11.3 | 30.6 | 0.03 | 0.03 | 0.03 | 57 | 1001.6 |
| 20260505194040 | 20 | 243 | 11.3 | 37.0 | 0.03 | 0.03 | 0.03 | 58 | 1001.3 |
| 20260505193539 | 20 | 271 | 20.9 | 43.5 | 0.03 | 0.03 | 0.03 | 56 | 1001.1 |